Total_Precipitation_Accumulation
0.31 0.20 0.36 0.37 0.33 0.27 0.22 0.22 0.24 0.25 0.21 0.18 0.15 0.11 0.08 0.08 0.07 0.07 0.10 0.10 0.11 0.13 0.17 0.18 0.20 0.25 0.26 0.26 0.32 0.40 0.46 0.35 0.31 0.28 0.22 0.23 0.28 0.25 0.27 0.37 0.64 0.81 0.42
0.20 0.19 0.38 0.39 0.33 0.28 0.22 0.22 0.23 0.23 0.22 0.19 0.17 0.15 0.10 0.09 0.08 0.08 0.08 0.06 0.06 0.08 0.13 0.16 0.20 0.25 0.27 0.28 0.35 0.42 0.42 0.39 0.39 0.40 0.35 0.32 0.30 0.26 0.26 0.30 0.57 0.77 0.48
0.25 0.24 0.32 0.41 0.38 0.35 0.30 0.27 0.25 0.28 0.26 0.20 0.19 0.18 0.15 0.12 0.11 0.10 0.08 0.06 0.05 0.07 0.09 0.13 0.19 0.25 0.30 0.37 0.38 0.39 0.37 0.39 0.43 0.51 0.66 0.85 0.50 0.33 0.32 0.30 0.41 0.48 0.43
0.32 0.30 0.35 0.49 0.48 0.46 0.40 0.37 0.36 0.35 0.32 0.26 0.21 0.20 0.17 0.14 0.13 0.14 0.11 0.08 0.07 0.08 0.11 0.12 0.15 0.22 0.28 0.36 0.40 0.38 0.35 0.39 0.44 0.49 0.64 0.87 0.77 0.49 0.46 0.47 0.52 0.41 0.39
0.31 0.32 0.45 0.59 0.55 0.55 0.49 0.47 0.46 0.44 0.40 0.34 0.29 0.26 0.24 0.21 0.16 0.15 0.14 0.12 0.11 0.12 0.13 0.14 0.15 0.20 0.26 0.27 0.28 0.29 0.32 0.42 0.53 0.43 0.51 0.69 0.90 0.67 0.53 0.62 0.66 0.56 0.45
0.34 0.34 0.47 0.57 0.54 0.57 0.57 0.56 0.58 0.51 0.48 0.42 0.37 0.34 0.34 0.30 0.24 0.21 0.22 0.23 0.18 0.17 0.16 0.17 0.19 0.23 0.26 0.27 0.26 0.29 0.39 0.48 0.45 0.49 0.53 0.71 0.93 0.75 0.64 0.67 0.66 0.75 0.61
0.44 0.39 0.40 0.49 0.52 0.60 0.59 0.56 0.64 0.62 0.60 0.49 0.42 0.38 0.37 0.35 0.33 0.31 0.34 0.34 0.32 0.28 0.24 0.22 0.21 0.21 0.23 0.27 0.27 0.30 0.41 0.44 0.53 0.62 0.58 0.71 0.69 0.73 0.66 0.62 0.68 0.84 0.77
0.58 0.48 0.40 0.47 0.54 0.60 0.61 0.66 0.79 0.79 0.71 0.57 0.47 0.46 0.44 0.45 0.42 0.42 0.42 0.39 0.42 0.42 0.37 0.32 0.28 0.23 0.21 0.25 0.25 0.30 0.42 0.49 0.53 0.56 0.45 0.55 0.71 0.75 0.59 0.59 0.66 0.82 0.87
0.86 0.72 0.57 0.55 0.60 0.70 0.76 0.81 0.93 0.97 0.89 0.71 0.56 0.56 0.54 0.50 0.46 0.44 0.46 0.45 0.44 0.43 0.40 0.38 0.36 0.31 0.25 0.23 0.23 0.28 0.40 0.46 0.50 0.49 0.35 0.47 0.69 0.63 0.49 0.48 0.56 0.71 0.80
0.92 0.87 0.79 0.74 0.74 0.82 0.88 1.01 1.10 1.20 1.30 1.06 0.77 0.68 0.64 0.54 0.47 0.48 0.48 0.49 0.50 0.54 0.49 0.45 0.43 0.38 0.34 0.29 0.25 0.25 0.29 0.31 0.40 0.37 0.40 0.44 0.61 0.60 0.46 0.40 0.44 0.46 0.55
0.67 0.71 0.77 0.80 0.86 0.86 0.82 0.88 1.11 1.28 1.46 1.19 0.83 0.84 0.76 0.54 0.54 0.57 0.55 0.64 0.66 0.68 0.66 0.60 0.54 0.49 0.43 0.36 0.33 0.27 0.19 0.17 0.29 0.33 0.36 0.40 0.59 0.57 0.39 0.29 0.25 0.28 0.33
0.54 0.51 0.54 0.57 0.66 0.73 0.72 0.93 1.18 1.22 1.34 1.09 0.92 0.95 0.91 0.96 0.89 0.69 0.66 0.81 0.89 0.92 0.83 0.76 0.70 0.57 0.46 0.36 0.33 0.25 0.13 0.14 0.20 0.24 0.23 0.37 0.57 0.53 0.35 0.22 0.17 0.18 0.17
0.42 0.40 0.39 0.41 0.44 0.53 0.74 0.98 1.20 1.25 1.29 1.33 1.36 1.22 1.20 1.15 0.95 0.77 0.73 0.75 0.80 0.86 0.78 0.82 0.78 0.59 0.48 0.37 0.31 0.20 0.12 0.12 0.18 0.18 0.22 0.34 0.54 0.53 0.39 0.24 0.16 0.14 0.14
0.46 0.44 0.38 0.30 0.31 0.39 0.53 0.75 1.03 1.10 1.16 1.23 1.24 1.04 1.12 1.13 0.94 0.87 0.94 0.96 0.90 0.84 0.95 0.98 0.90 0.76 0.59 0.41 0.35 0.30 0.22 0.14 0.16 0.19 0.29 0.29 0.47 0.53 0.44 0.31 0.18 0.14 0.13
0.53 0.61 0.59 0.43 0.37 0.39 0.45 0.50 0.64 0.74 0.85 1.13 1.21 0.95 0.93 0.93 0.98 1.00 0.90 1.03 1.08 1.05 1.02 1.00 0.90 0.78 0.70 0.53 0.50 0.46 0.36 0.23 0.19 0.20 0.26 0.22 0.33 0.46 0.49 0.38 0.26 0.17 0.14
0.36 0.49 0.57 0.55 0.54 0.52 0.45 0.40 0.40 0.46 0.59 0.73 0.76 0.72 0.75 0.77 0.86 1.01 0.93 0.90 0.98 1.16 1.19 1.11 1.00 0.93 0.86 0.64 0.53 0.49 0.41 0.32 0.26 0.27 0.30 0.24 0.19 0.24 0.35 0.38 0.31 0.23 0.18
0.26 0.32 0.42 0.50 0.56 0.58 0.59 0.58 0.48 0.47 0.53 0.55 0.55 0.61 0.69 0.68 0.80 0.96 0.89 0.78 0.75 0.92 1.09 1.19 1.17 1.07 0.91 0.74 0.61 0.54 0.43 0.36 0.32 0.36 0.34 0.30 0.23 0.16 0.22 0.31 0.31 0.26 0.23
0.25 0.25 0.31 0.36 0.43 0.53 0.62 0.69 0.66 0.62 0.57 0.51 0.47 0.45 0.49 0.51 0.58 0.77 0.81 0.71 0.70 0.87 1.06 1.19 1.24 1.21 1.04 0.91 0.82 0.69 0.55 0.42 0.34 0.34 0.31 0.29 0.27 0.22 0.23 0.25 0.27 0.28 0.28
0.24 0.23 0.24 0.28 0.32 0.40 0.51 0.58 0.58 0.57 0.53 0.51 0.51 0.40 0.38 0.40 0.51 0.70 0.83 0.84 0.85 0.93 1.03 1.09 1.22 1.21 1.16 1.01 0.89 0.72 0.59 0.50 0.37 0.31 0.30 0.30 0.30 0.28 0.28 0.24 0.21 0.21 0.25
0.24 0.24 0.24 0.26 0.27 0.31 0.36 0.43 0.48 0.46 0.44 0.50 0.49 0.47 0.51 0.57 0.62 0.79 0.97 1.07 1.16 1.16 1.17 1.31 1.53 1.47 1.24 1.13 1.03 0.77 0.56 0.48 0.40 0.37 0.31 0.27 0.29 0.31 0.29 0.24 0.21 0.12 0.15
0.18 0.17 0.19 0.24 0.26 0.25 0.24 0.29 0.34 0.35 0.44 0.51 0.59 0.64 0.68 0.71 0.78 0.96 1.15 1.36 1.46 1.32 1.29 1.45 1.67 1.76 1.50 1.30 1.23 1.01 0.76 0.52 0.41 0.42 0.39 0.30 0.28 0.30 0.35 0.38 0.28 0.22 0.18
0.05 0.09 0.13 0.15 0.17 0.17 0.18 0.23 0.32 0.39 0.45 0.58 0.74 0.85 0.87 0.85 0.89 0.93 1.10 1.27 1.32 1.33 1.33 1.37 1.54 1.78 1.67 1.46 1.45 1.59 1.30 0.96 0.55 0.37 0.41 0.36 0.31 0.30 0.31 0.33 0.35 0.31 0.25
0.02 0.03 0.06 0.11 0.14 0.14 0.22 0.41 0.68 0.92 1.01 1.02 1.04 1.19 1.28 1.24 1.18 1.15 1.17 1.29 1.34 1.42 1.38 1.36 1.39 1.56 1.63 1.54 1.54 1.86 1.60 1.28 1.11 0.67 0.44 0.47 0.46 0.42 0.38 0.37 0.39 0.38 0.31
0.03 0.03 0.04 0.09 0.15 0.18 0.35 0.68 1.07 1.39 1.48 1.49 1.61 1.65 1.71 1.63 1.49 1.46 1.47 1.55 1.46 1.39 1.31 1.28 1.29 1.39 1.61 1.61 1.55 1.49 1.41 1.29 1.40 1.13 0.70 0.54 0.55 0.51 0.49 0.44 0.43 0.44 0.44
0.10 0.11 0.13 0.20 0.34 0.50 0.65 0.83 1.13 1.32 1.44 1.58 1.74 1.88 1.99 2.11 2.08 1.99 1.92 1.77 1.56 1.44 1.40 1.42 1.38 1.42 1.49 1.50 1.46 1.40 1.41 1.32 1.10 1.05 1.00 0.78 0.62 0.54 0.53 0.53 0.53 0.49 0.52
0.24 0.27 0.31 0.41 0.51 0.58 0.70 0.84 0.98 1.07 1.23 1.43 1.58 1.75 1.88 2.00 2.03 1.97 1.84 1.61 1.43 1.34 1.38 1.46 1.45 1.45 1.45 1.46 1.40 1.28 1.23 1.19 1.07 1.09 0.97 0.95 0.95 0.66 0.54 0.49 0.51 0.51 0.50